Miscellaneous Local Product
Issued by NWS North Platte, NE

Home | Current Version | Previous Version | Text Only | Print | Product List | Glossary Off
Versions: 1 2 3 4 5 6 7 8 9 10 11 12 13 14 15 16 17 18 19 20 21 22 23 24 25 26 27 28 29 30 31 32 33 34 35 36 37 38 39 40 41 42 43 44 45 46 47 48 49 50

000
AXUS43 KLBF 270610
MISLBF


WESTERN AND NORTH CENTRAL NEBRASKA HOURLY WEATHER ROUNDUP
NATIONAL WEATHER SERVICE NORTH PLATTE NE
100 AM CDT WED MAY 27 2015

***STATIONS NOT REPORTING VARIABLES SUCH AS SKY/WEATHER OR
PRESSURE ARE PROVIDED BY THE NEBRASKA DEPARTMENT OF
ROADS...RAWS...AND APRS NETWORKS...AND ARE NOT UNDER
NATIONAL WEATHER SERVICE QUALITY CONTROL***

...OBSERVATIONS IN AND NEAR THE EASTERN PANHANDLE OF NEBRASKA...

CITY           SKY/WX    TMP DP  RH WIND       PRES   REMARKS
PINE RIDGE     MOCLDY    52  45  77 E5        30.01F
CHADRON        CLOUDY    59  49  69 CALM      30.00S
ALLIANCE       MOCLDY    52  49  89 S9        30.03R
SIDNEY         CLEAR     51  48  89 S8        30.07R
WHITECLAY        N/A     50  45  81 SE7         N/A
BIG SPRINGS      N/A     57  51  79 SE12        N/A
$$

...OBSERVATIONS IN NORTH CENTRAL NEBRASKA...

CITY           SKY/WX    TMP DP  RH WIND       PRES   REMARKS
VALENTINE      CLEAR     51  47  86 W3        30.01S
THEDFORD       PTCLDY    52  47  82 SW3       30.03F
AINSWORTH      CLEAR     55  50  83 W6        30.01S
O`NEILL        CLEAR     56  51  84 W3        29.98S
ORD            CLEAR     55  48  77 CALM      29.98S
BROKEN BOW     CLEAR     54  48  80 CALM      30.01S
BROWNLEE         N/A     61  42  49 CALM        N/A
SPRINGVIEW       N/A     50  48  92 CALM        N/A
HALSEY           N/A     57  45  64 SW3         N/A
BREWSTER         N/A     56  49  80 CALM        N/A
ROSE             N/A     55  50  83 S5          N/A
NEWPORT          N/A     53  51  92 W3          N/A
SARGENT          N/A     51  48  91 CALM        N/A
COMSTOCK         N/A     58  52  81 W8          N/A
EWING            N/A     55  52  90 CALM        N/A
$$

...OBSERVATIONS IN SOUTHWEST NEBRASKA AND FAR NORTHEAST COLORADO...

CITY           SKY/WX    TMP DP  RH WIND       PRES   REMARKS
WRAY           FAIR      56  51  84 SE5       30.06R
HOLYOKE        FAIR      55  50  82 SE8       30.06R
IMPERIAL       CLEAR     53  48  83 SE7       30.05R
OGALLALA       MOCLDY    58  48  69 SE6       30.04S
NORTH PLATTE   PTCLDY    52  46  80 SE5       30.05R
MCCOOK         CLEAR     56  48  74 CALM      30.04R
LEXINGTON      CLEAR     50  48  92 CALM      30.03S
PAXTON           N/A     54  49  83 CALM        N/A
GOTHENBURG       N/A     54  48  81 CALM        N/A
CALLAWAY         N/A     53  49  87 SE3         N/A
$$

...NORTH PLATTE AREA...

CITY           SKY/WX    TMP DP  RH WIND       PRES   REMARKS
AIRPORT        PTCLDY    52  46  80 SE5       30.05R
$$

...SOME WEATHER OBSERVATIONS FROM AROUND THE REGION...

CITY           SKY/WX    TMP DP  RH WIND       PRES   REMARKS
DENVER         MOCLDY    51  46  83 S10       30.07S
LARAMIE        CLOUDY    48  41  76 S9        30.14R
CHEYENNE       MOCLDY    49  45  86 SW7       30.11R
SCOTTSBLUFF    CLOUDY    56  51  84 SE5       30.04R
RAPID CITY     PTCLDY    52  48  86 S3        29.99S
PIERRE         CLEAR     54  47  77 CALM      29.93F
WINNER         FAIR      61  49  64 SW8       29.97S
SIOUX FALLS    MOCLDY    51  49  92 SW3       29.90S
OMAHA          CLEAR     58  54  86 CALM      29.94R
GRAND ISLAND   CLEAR     54  47  77 W8        30.00S
KANSAS CITY    CLEAR     63  57  81 W6        29.95R
WICHITA        MOCLDY    63  60  90 SW5       30.00R
HAYS           CLEAR     55  48  76 N5        30.03S
LIBERAL        CLOUDY    64  54  68 SE6       30.05F
GOODLAND       CLEAR     54  51  90 SE6       30.07R
$$



USA.gov is the U.S. government's official web portal to all federal, state and local government web resources and services.